This is the latest recevied weather packets stored in our database for station/object CE3TPB-1. If no packets are shown the sender has not sent any weather packets the latest 10 day(s).
| Time | Temp. | Humidity | Pressure | Rain* | Wind** | Luminosity | Snow |
|---|---|---|---|---|---|---|---|
| 1788491213 | 23.89° C | 31% | 1026.9 hPa | - | - | - | - |
| 1788490613 | 23.89° C | 31% | 1023.8 hPa | - | - | - | - |
| 1788489412 | 24.44° C | 31% | 1024.8 hPa | - | - | - | - |
| 1788488811 | 24.44° C | 31% | 1025.9 hPa | - | - | - | - |
| 1788488211 | 24.44° C | 31% | 1021.2 hPa | - | - | - | - |
| 1788487610 | 24.44° C | 31% | 1026.6 hPa | - | - | - | - |
| 1788487010 | 25° C | 31% | 1025 hPa | - | - | - | - |
| 1788486410 | 25° C | 31% | 1025.8 hPa | - | - | - | - |
| 1788485209 | 25° C | 31% | 1025.6 hPa | - | - | - | - |
| 1788484608 | 25.56° C | 31% | 1024.9 hPa | - | - | - | - |
| 1788483408 | 25.56° C | 31% | 1028.3 hPa | - | - | - | - |
| 1788482807 | 26.11° C | 31% | 1027.2 hPa | - | - | - | - |
| 1788482207 | 26.11° C | 31% | 1023.2 hPa | - | - | - | - |
| 1788481606 | 26.11° C | 31% | 1030.2 hPa | - | - | - | - |
| 1788481006 | 26.11° C | 31% | 1027.8 hPa | - | - | - | - |
| 1788479805 | 26.67° C | 31% | 1023 hPa | - | - | - | - |
| 1788478604 | 27.22° C | 31% | 1024.2 hPa | - | - | - | - |
| 1788470797 | 29.44° C | 30% | 1023.3 hPa | - | - | - | - |
| 1788467796 | 30° C | 29% | 1026.2 hPa | - | - | - | - |
| 1788424387 | 20.56° C | 34% | 1031.9 hPa | - | - | - | - |
| 1788423787 | 21.11° C | 34% | 1027.2 hPa | - | - | - | - |
| 1788423186 | 21.11° C | 34% | 1025.4 hPa | - | - | - | - |
| 1788422586 | 21.67° C | 33% | 1025.4 hPa | - | - | - | - |
| 1788421385 | 21.67° C | 33% | 1027.5 hPa | - | - | - | - |
| 1788420785 | 21.67° C | 34% | 1025.1 hPa | - | - | - | - |
* Rain since midnight (hover to see other rain measurements)
** Current wind speed in m/s (hover to see current wind gust speed)